Location: Banksville Park
(38.5557°N, 75.1182°W)
Time: 19:01:21
(UTC+00:00)

SAR-Lupe-1 - Pass Details

Date: 25 January 2021
Orbit: 482 x 484 km, 98.2° (Epoch: 05 March)

Event Time Altitude Azimuth Distance (km) Brightness Sun altitude
Exits shadow 22:54:19 - 32° (NNE) 2,145 6.9 -8.0°
Reaches altitude 10° 22:55:38 10° 42° (NE) 1,667 6.3 -8.3°
Maximum altitude 22:58:34 24° 97° (E) 1,049 5.2 -8.8°
Drops below altitude 10° 23:01:29 10° 152° (SSE) 1,655 6.7 -9.4°
Sets 23:03:49 0° 167° (SSE) 2,530 7.8 -9.8°
